Regional Weather Roundup
Issued by NWS

Home | Current Version | Previous Version | Text Only | Print | Product List | Glossary Off
Versions: 1 2 3 4 5 6 7 8 9 10 11 12 13 14 15 16 17 18 19 20 21 22 23 24 25 26 27 28 29 30 31 32 33 34 35 36 37 38 39 40 41 42 43

000
ASUS43 KMKX 240400
RWRWI

WISCONSIN REGIONAL WEATHER ROUNDUP
NATIONAL WEATHER SERVICE MILWAUKEE/SULLIVAN WI
1100 PM CDT TUE AUG 23 2016

NOTE: "FAIR" INDICATES FEW OR NO CLOUDS BELOW 12,000 FEET WITH NO
SIGNIFICANT WEATHER AND/OR OBSTRUCTIONS TO VISIBILITY.

WIZ001-002-006>008-014>016-023>028-240500-
NORTHWEST WISCONSIN

CITY           SKY/WX    TMP DP  RH WIND       PRES   REMARKS
SUPERIOR ARPT  CLOUDY    70  65  84 S5        29.85F
ASHLAND        CLOUDY    72  63  73 S9        29.90F
HAYWARD        MOCLDY    71  63  75 S14G20    29.91F
SIREN          CLOUDY    73  63  71 S12G20    29.89R
CUMBERLAND     LGT RAIN  68  63  83 S13       29.91F
RICE LAKE      LGT RAIN  69  64  84 SE12      29.92F
CHETEK         NOT AVBL
LADYSMITH      CLOUDY    71  63  76 SE7       29.96F
EAU CLAIRE     NOT AVBL
MENOMONIE      RAIN      68  67  98 E12       29.90F
NEW RICHMOND   LGT RAIN  68  67  94 SE12G18   29.88F
OSCEOLA        LGT RAIN  71  65  83 SE12G20   29.89F
$$

WIZ003>005-009-010-017-018-240500-
NORTH CENTRAL WISCONSIN

CITY           SKY/WX    TMP DP  RH WIND       PRES   REMARKS
MANITOWISH WTR NOT AVBL
ARBOR VITAE    CLOUDY    69  64  81 S7        30.01R
WOODRUFF       CLOUDY    69  64  81 S7        30.01R
RHINELANDER    CLOUDY    68  64  87 S6        30.03R
EAGLE RIVER    CLOUDY    65  59  81 S3        30.02R
LAND O LAKES   CLOUDY    67  61  83 S5        30.02S
PHILLIPS       CLOUDY    68  63  83 S10G16    29.97F
TOMAHAWK       CLOUDY    63  61  92 CALM      30.02S
MEDFORD        CLOUDY    67  64  91 SE7       30.00S
MERRILL        CLOUDY    67  64  87 SE5       30.02S
$$

WIZ029-030-035-036-043>047-240500-
CENTRAL WISCONSIN

CITY           SKY/WX    TMP DP  RH WIND       PRES   REMARKS
WAUSAU         CLOUDY    68  61  78 SE7       30.00S
MOSINEE        MOCLDY    66  63  88 SE5       30.02S
MARSHFIELD     CLOUDY    70  62  76 S5        30.01R
STEVENS POINT  CLOUDY    68  60  75 S6        30.01F
WAUPACA        MOCLDY    71  63  74 SE7       30.02F
WAUTOMA        CLOUDY    69  63  81 SE6       30.00F
WISC RAPIDS    LGT RAIN  70  64  81 SE5       30.00F
CAMP DOUGLAS   DRIZZLE   70  64  83 SE9       29.94F
$$

WIZ011>013-019>022-031-037>040-048>050-240500-
NORTHEAST WISCONSIN

CITY           SKY/WX    TMP DP  RH WIND       PRES   REMARKS
ANTIGO         CLOUDY    64  62  91 CALM      30.05R
SHAWANO        CLOUDY    71  62  73 S5        30.03S
OCONTO         NOT AVBL
STURGEON BAY   CLOUDY    68  63  84 S9        30.05S
GREEN BAY      PTCLDY    67  64  90 S7        30.03F
MANITOWOC      NOT AVBL
APPLETON       MOCLDY    72  59  64 S10       30.02F
CLINTONVILLE   MOCLDY    68  61  77 S7        30.02S
OSHKOSH        CLOUDY    68  61  78 S7        30.03F
$$

WIZ032>034-041-042-053>061-240500-
SOUTHWEST WISCONSIN

CITY           SKY/WX    TMP DP  RH WIND       PRES   REMARKS
LA CROSSE      HVY RAIN  69  32  25 VRB3      29.97R
SPARTA         LGT RAIN  72  66  81 S6        29.96R
VIROQUA        CLOUDY    65  65 100 S7        29.96F
BOSCOBEL       TSTM      73  68  84 NW10      29.95F
PRAIRIE DU CHI LGT RAIN  70  63  78 NW5       29.95F
PLATTEVILLE    CLOUDY    73  69  89 S16G22    29.99F
$$

WIZ056-057-062-063-064-067-068-240500-
SOUTH CENTRAL WISCONSIN

CITY           SKY/WX    TMP DP  RH WIND       PRES   REMARKS
REEDSBURG      NOT AVBL
BARABOO/DELLS  CLOUDY    72  63  72 S14       29.99F
LONE ROCK      CLOUDY    74  66  76 SE12      29.98F
MINERAL POINT  CLOUDY    72  68  88 S12G17    30.00F
MADISON        CLOUDY    73  64  73 S16       30.00F
MIDDLETON      CLOUDY    74  65  74 S13       30.02F
WATERTOWN      PTCLDY    69  64  84 SE6       30.04F
MONROE         LGT RAIN  70  64  83 S16       30.01F
JANESVILLE     CLOUDY    73  64  73 S12       30.04
$$

WIZ051-052-058>065-066-070>072-240500-
SOUTHEAST WISCONSIN

CITY           SKY/WX    TMP DP  RH WIND       PRES   REMARKS
MILWAUKEE      MOCLDY    73  61  65 S7        30.07F
WAUKESHA       MOCLDY    70  59  68 SE8       30.09F
MILWAUKEE/TIMM PTCLDY    72  55  56 S8        30.08S
RACINE         PTCLDY    73  63  70 S10       30.09F
BURLINGTON     MOCLDY    68  61  77 S3        30.08F
KENOSHA        CLEAR     71  61  70 S7        30.08F
FOND DU LAC    MOCLDY    70  62  76 S12       30.03F
SHEBOYGAN      PTCLDY    65  61  87 S6        30.06F
WEST BEND      MOCLDY    68  59  73 S6        30.06F
JUNEAU         MOCLDY    69  62  78 SE13      30.05F
$$

LSZ147-162-240500-
LAKE SUPERIOR

STATION/POSITION TIME  TEMP    WIND        PRES    WAVE
                       AIR SEA DIR/SP/G            HT/PER
                 (UTC) (F)     (DEG/KT/KT) (MB)    (FT/S)
W MID LAKE BUOY  0250   72 67  190/ 12/ 12 1011.7R   1/ 3
DEVILS ISLAND    0300   74     190/  7/ 10 1011.6F
PORT WING        0300   75     160/  9/ 18 1011.5
SAXON HARBOR     0340   74     180/  5/  9 1012.2F
$$

LMZ867-665-643>646-240500-
LAKE MICHIGAN

STATION/POSITION TIME  TEMP    WIND        PRES    WAVE
                       AIR SEA DIR/SP/G            HT/PER
                 (UTC) (F)     (DEG/KT/KT) (MB)    (FT/S)
CHAMBERS ISLAND  0300   71     160/  7/ 16 1016.9F
S GREEN BAY BUOY 0300   72 73  170/ 17/ 21 1016.3
N MID LAKE BUOY  0250   72 71  200/ 17/ 21 1017.1F   6/ 7
NORTHPORT PIER   0300   69     160/  7/ 13 1017.3F
SISTER BAY       0307   70     170/ 17/ 20   N/A
KEWAUNEE LAKESHO 0300   67     180/ 12/ 16 1017.4F
SHEBOYGAN LAKESH 0300   67     190/ 16/ 16 1017.6F
PORT WASHINGTON  0300   65     200/  5/  8 1019.0
ATWATER BUOY     0300   65 54  170/  8/ 10   N/A
MILWAUKEE LAKESH 0310   69     180/  9/ 10   N/A
S MID LAKE BUOY  0250   76 75  160/ 16/ 19 1018.7F   2/ 5
KENOSHA   LAKESH 0300   71     180/ 11/ 14 1018.3F
$$

TC  - TEMPERATURE IN CELSIUS
VSB - VISIBILITY IN STATUTE MILES
WCI - WIND CHILL INDEX
HX  - HEAT INDEX





USA.gov is the U.S. government's official web portal to all federal, state and local government web resources and services.